Tracking 27188 objects as of 1-Apr-2023
HD Live streaming from Space Station
objects crossing your sky now

STARLINK-3415

Track STARLINK-3415 now!
10-day predictions
STARLINK-3415 is classified as:


NORAD ID: 51472
Int'l Code: 2022-010S
Perigee: 546.0 km
Apogee: 547.7 km
Inclination: 53.2 °
Period: 95.4 minutes
Semi major axis: 6917 km
RCS: Unknown
Launch date: February 3, 2022
Source: United States (US)
Launch site: AIR FORCE EASTERN TEST RANGE (AFETR)
Your satellite tracking list
Your tracking list is empty




NASA's NSSDC Master Catalog

Two Line Element Set (TLE):
1 51472U 22010S   23091.19128790  .00009255  00000-0  59877-3 0  9996
2 51472  53.2165  58.2396 0001206  92.2208 267.8922 15.08841351 65269
Source of the keplerian elements: AFSPC